Wind_Speed
10 11 12 12 13 12 12 11 9 9 10 10 10 9 7 5 3 2 2 3 3 3 6 4 2 4 2 1 3 4 6 7 7 7 5 4 4 6 6 5 4 3 5 6 8 10 12 13 13 12 12 12 12 12 12 13 13 14 14 14 14 14 15 15 16 16 16 16 16 16 16 16 17 17
11 12 12 12 12 13 13 11 9 9 10 11 10 10 8 7 6 5 2 3 4 4 6 6 5 6 4 2 3 4 6 8 8 7 6 5 6 7 6 6 5 4 5 6 7 9 11 12 13 14 14 14 14 14 14 14 14 14 15 15 15 15 15 16 17 17 17 18 17 17 17 17 17 17
13 13 13 13 13 13 13 12 10 10 10 10 10 10 8 7 8 7 4 1 4 5 6 8 7 7 5 3 4 4 5 8 8 7 7 7 7 7 6 5 6 6 6 7 8 8 9 10 12 13 14 15 15 15 15 16 16 16 16 16 16 16 16 17 18 18 18 18 19 18 18 18 18 18
15 14 13 13 13 13 13 12 11 11 11 10 10 10 10 8 9 9 7 5 7 10 10 10 9 6 5 5 5 4 3 7 8 8 9 10 9 8 7 6 7 7 6 7 8 8 8 9 10 11 13 14 15 16 16 16 16 17 17 17 17 18 18 18 18 19 19 19 19 19 19 19 19 20
16 15 14 14 12 11 12 12 12 13 12 11 11 11 12 12 11 11 10 7 8 11 11 9 8 6 5 5 5 2 3 4 6 9 10 11 10 10 9 8 8 7 6 7 7 7 7 7 8 9 10 12 13 14 15 16 17 18 18 18 18 19 18 18 19 19 20 20 20 20 20 20 20 21
15 15 15 15 13 11 12 12 13 14 13 13 13 13 14 14 12 12 12 10 7 10 12 9 8 8 7 6 4 3 5 5 6 8 9 11 11 11 12 11 11 9 7 7 7 6 6 5 6 7 8 10 11 13 14 15 17 19 20 20 20 20 20 20 20 20 20 21 21 22 22 22 22 22
15 17 16 15 13 11 9 8 8 9 10 12 13 14 15 15 14 13 14 12 9 11 12 10 9 8 7 7 6 7 9 8 7 8 10 11 12 12 14 15 14 12 10 9 8 6 6 6 6 6 7 8 9 10 11 12 14 16 17 19 20 21 21 21 21 21 21 21 22 22 23 23 23 24
15 17 16 14 14 12 9 8 8 7 7 9 11 13 14 15 15 14 15 15 13 13 11 10 10 9 8 8 8 8 10 11 10 10 11 11 11 11 13 15 16 15 12 10 9 7 7 7 6 6 7 7 8 8 9 10 11 12 13 15 17 19 20 21 21 21 22 22 22 22 23 24 24 25
12 12 11 10 12 14 12 11 11 10 9 11 13 13 13 13 14 15 16 17 17 16 13 12 13 11 10 10 9 8 9 11 12 12 12 11 11 11 11 13 15 16 14 12 10 9 8 7 7 8 8 8 8 8 9 9 10 10 11 12 13 14 15 16 18 18 19 20 20 21 22 23 24 24
16 14 11 10 11 12 11 10 11 11 12 14 14 13 12 11 12 14 16 18 19 19 17 16 14 12 11 11 10 9 9 10 12 13 13 13 11 11 11 11 13 15 16 13 11 10 9 7 7 7 9 9 9 9 9 9 9 9 10 10 11 11 12 12 13 14 15 16 17 17 18 19 20 21
20 17 15 14 14 14 13 12 13 13 13 14 15 14 11 11 12 14 16 18 19 18 17 15 13 11 10 10 10 10 9 10 12 13 14 14 11 10 10 12 13 16 17 14 12 12 11 9 9 8 9 10 10 9 9 9 9 9 9 9 10 10 11 12 13 13 14 15 16 16 17 18 19 20
17 17 18 17 15 14 14 13 14 14 12 12 14 14 13 13 14 15 15 15 15 14 13 13 12 12 11 10 10 10 10 11 12 11 12 14 12 9 10 13 15 17 18 16 15 15 14 13 12 11 10 11 10 9 9 9 9 9 9 9 10 11 12 13 14 15 15 16 17 17 18 19 20 21
14 14 16 16 15 14 13 12 12 12 10 10 12 12 13 14 14 13 13 13 13 12 12 13 13 12 12 12 11 11 11 11 12 12 11 13 12 10 10 14 16 17 18 19 18 17 16 16 15 13 13 12 11 10 10 10 9 9 9 10 10 11 12 13 14 15 16 17 17 18 19 19 20 21
14 13 13 14 14 14 13 13 13 12 11 12 11 11 14 15 14 13 13 13 13 13 13 13 13 12 13 14 13 12 12 11 12 14 14 14 14 11 9 12 16 18 19 20 22 21 19 18 17 16 15 14 13 13 12 11 10 10 10 11 11 12 12 12 13 14 15 16 17 17 18 19 20 21
15 14 13 12 12 12 12 12 13 13 13 14 13 12 13 14 14 14 14 14 14 14 14 14 13 12 14 16 14 13 13 12 12 14 15 16 15 12 9 9 12 17 20 21 23 23 22 21 21 18 17 17 17 15 14 13 12 12 12 12 12 12 12 12 13 13 14 14 15 15 16 17 18 19
15 14 13 12 11 11 11 12 13 13 14 14 14 12 11 13 14 15 15 15 15 15 15 15 15 14 15 16 15 14 13 12 13 12 11 11 12 12 12 12 11 14 18 22 24 24 24 23 23 22 20 20 20 18 17 15 14 13 13 12 11 11 11 11 12 12 12 12 12 13 13 14 15 15
16 14 13 12 12 12 12 12 13 13 14 14 12 10 9 10 11 12 13 13 14 15 15 15 16 16 15 16 17 15 13 14 15 14 13 11 11 13 15 15 14 14 16 22 24 24 24 24 25 24 23 23 23 21 19 17 16 14 14 12 10 10 10 10 10 10 11 10 10 10 10 10 10 9
15 13 12 12 12 12 12 12 11 12 13 13 11 9 8 8 8 8 9 10 10 12 13 15 16 15 14 16 17 15 14 15 15 15 16 17 16 16 17 17 17 15 15 20 22 20 21 23 24 25 24 24 25 24 22 19 17 16 15 13 10 9 9 9 8 8 9 8 8 8 7 6 6 5
13 12 11 11 11 10 10 11 10 11 12 12 10 9 8 8 8 8 9 9 9 9 10 11 12 12 13 15 16 16 15 15 16 16 18 20 19 18 18 19 19 17 17 20 21 19 20 21 23 25 25 25 26 26 23 21 19 17 16 14 11 9 8 8 7 7 7 7 6 5 5 5 5 6
12 10 9 9 9 10 10 9 9 10 10 10 9 9 9 9 9 9 9 8 8 9 9 10 11 12 14 16 18 18 16 17 18 18 20 20 18 16 18 20 20 19 17 19 21 19 19 20 23 24 24 25 26 26 25 23 20 19 18 15 12 9 8 8 7 6 7 7 6 5 6 7 8 9
10 8 7 7 7 7 8 7 6 6 7 7 8 8 9 8 8 8 8 8 8 8 9 10 11 12 13 15 16 15 14 15 17 18 20 20 16 14 14 16 18 17 15 17 18 17 18 19 21 22 22 24 25 26 27 25 22 20 19 17 13 11 9 8 7 7 8 8 7 7 8 9 10 11
7 5 4 3 3 3 4 4 4 4 5 6 7 8 8 7 5 6 8 9 10 10 11 12 12 13 13 14 15 14 12 12 14 15 17 17 13 12 14 16 18 17 18 20 19 15 16 18 17 16 15 16 20 24 25 25 23 22 20 18 16 13 11 10 9 8 9 9 9 9 10 10 10 10
6 6 5 2 1 1 2 2 3 4 5 5 6 7 7 7 6 7 9 10 11 12 13 14 14 15 15 15 15 15 12 11 12 14 14 13 11 12 15 17 15 11 14 20 19 15 16 16 16 14 9 5 10 18 23 23 23 23 22 20 17 15 13 12 10 9 9 10 9 9 10 10 10 9
7 5 3 1 1 0 1 2 2 2 2 3 3 4 4 5 5 6 7 8 9 10 11 11 12 13 13 13 14 13 11 10 10 12 12 12 14 15 15 17 15 10 12 18 18 17 18 17 18 20 15 7 6 13 21 24 24 24 23 20 18 15 13 11 11 11 10 10 9 9 9 9 8 7
7 5 4 5 5 5 6 7 7 7 7 6 6 6 6 5 5 6 6 6 5 6 7 7 8 9 10 9 10 9 8 7 8 9 9 10 12 14 14 14 15 15 15 17 16 17 18 16 17 21 21 15 9 10 14 20 24 24 22 19 17 16 14 13 12 12 11 11 11 10 9 8 6 5
9 8 9 10 10 11 11 12 11 11 11 10 10 10 9 7 6 6 5 5 6 6 5 5 6 7 7 6 6 5 5 5 5 5 6 6 7 7 9 9 9 8 9 11 10 12 15 15 16 19 19 14 8 6 6 10 16 19 20 19 18 17 16 15 14 13 12 12 13 12 11 8 6 6
10 11 12 13 13 13 15 15 14 13 12 12 12 12 11 9 8 7 6 7 8 9 9 9 10 10 10 9 7 5 3 2 2 2 3 4 4 4 5 6 5 5 5 8 8 8 12 13 11 12 13 9 5 2 1 2 5 11 16 19 19 18 17 16 15 14 14 14 14 14 13 10 8 8
14 14 15 15 14 15 16 18 17 16 14 14 14 14 14 13 11 11 11 11 13 14 14 13 13 13 13 12 12 10 7 5 5 4 4 4 3 2 1 1 2 3 4 5 6 5 8 7 4 4 7 7 4 2 2 3 4 4 9 14 17 18 18 17 16 15 15 16 15 14 13 12 10 9
16 16 15 15 15 15 16 17 18 17 16 15 16 17 18 17 16 15 15 16 17 17 16 15 14 13 13 11 10 9 8 7 7 6 6 5 5 4 4 5 6 7 8 8 8 5 2 1 3 4 5 7 7 8 8 8 10 9 3 2 6 11 14 17 18 16 16 16 16 14 13 11 9 8
17 16 15 14 14 14 15 16 17 17 16 15 16 17 18 19 19 18 18 18 18 18 16 16 15 14 13 12 10 10 9 9 8 7 6 6 7 7 7 8 9 10 10 9 9 8 6 4 3 3 5 8 9 9 9 8 9 10 9 8 7 5 6 10 14 17 17 17 15 13 12 10 8 7
16 16 14 15 15 15 15 16 17 17 18 19 19 19 20 20 21 20 20 20 19 18 17 16 16 16 16 16 15 14 14 13 11 8 7 7 7 6 6 8 11 11 11 10 11 10 9 7 5 4 2 4 6 6 5 5 7 8 8 8 8 7 6 7 9 11 14 15 14 12 12 12 10 7
15 14 14 16 17 18 19 19 20 21 22 22 22 22 22 22 22 22 22 22 21 20 19 18 18 18 19 19 19 19 18 17 15 12 11 10 9 8 8 11 12 12 11 11 11 11 11 10 9 8 6 5 6 6 5 6 9 9 7 7 7 6 6 4 4 4 7 10 11 10 9 10 8 5
13 14 16 19 20 20 20 20 20 20 21 21 21 21 21 21 21 22 23 22 21 21 20 19 19 19 19 19 19 19 19 19 18 17 16 15 14 13 14 15 14 13 13 12 12 11 11 11 11 10 10 9 9 9 7 8 9 9 8 7 6 6 5 2 1 4 6 8 8 7 6 5 4 4
16 19 21 22 21 19 19 18 17 17 17 19 20 19 19 19 19 19 20 20 19 19 19 19 19 19 20 20 19 18 18 17 17 18 18 18 17 17 17 17 16 15 14 13 12 10 10 10 10 10 10 8 8 9 9 7 7 8 8 7 6 4 3 3 2 4 5 6 6 5 4 3 3 4
24 24 23 22 20 20 19 17 16 16 16 17 18 18 19 19 18 18 18 17 17 18 19 19 19 19 20 21 21 20 19 18 17 17 17 17 19 19 17 16 16 16 14 13 12 10 9 8 8 8 8 8 7 8 8 7 7 8 8 7 6 5 2 1 1 2 3 3 3 3 3 3 3 4
26 24 23 21 20 20 20 18 17 17 16 17 17 18 19 19 19 19 18 17 17 19 20 20 21 20 20 21 21 22 21 21 21 20 19 18 19 19 18 17 17 16 16 16 15 13 11 11 10 6 5 5 5 5 6 7 9 9 10 8 6 4 3 2 2 3 3 3 2 1 1 2 5 7
24 22 22 21 20 20 19 18 17 17 17 17 17 18 18 18 18 18 17 17 18 20 20 21 21 21 21 21 21 21 21 21 22 22 21 20 20 20 20 18 18 18 18 18 18 17 17 17 17 12 7 4 3 2 3 6 8 11 12 11 8 5 1 1 2 2 1 1 1 2 3 5 7 9
24 22 22 21 19 19 18 17 17 17 17 16 17 17 17 17 17 17 16 16 17 18 18 19 20 20 20 20 20 20 20 20 20 21 21 20 19 19 18 17 16 17 18 18 18 17 17 17 18 17 12 7 4 2 5 8 10 12 13 13 12 9 5 4 3 2 2 2 2 4 5 6 7 8
23 23 23 21 20 19 18 17 17 16 16 16 17 17 17 16 16 15 15 16 16 16 17 18 18 18 18 18 19 18 18 19 19 19 19 18 18 17 17 16 15 15 16 18 18 18 17 17 16 14 12 9 6 5 6 7 8 11 13 13 12 12 9 4 3 3 3 1 2 5 6 6 6 7
22 21 20 19 18 17 16 16 15 15 15 15 15 16 16 16 15 16 16 16 15 16 16 17 17 17 17 17 17 17 18 18 18 17 16 16 16 16 15 15 15 15 17 19 20 20 20 20 16 11 9 8 7 7 7 7 8 11 15 13 11 12 11 6 4 4 3 2 3 6 8 7 7 7
18 17 16 15 15 14 14 14 14 14 14 14 13 13 14 15 15 15 15 15 15 15 16 16 16 16 16 16 16 17 18 19 19 18 16 15 15 15 15 16 17 18 18 19 20 20 20 19 16 11 8 6 6 7 9 9 11 13 15 14 11 10 11 9 7 6 6 6 8 11 11 11 10 9
15 15 14 13 13 13 13 12 13 13 13 13 12 12 13 13 13 13 13 13 13 14 14 15 15 14 14 14 14 15 17 17 17 17 16 15 16 17 17 17 18 18 18 17 18 18 16 15 14 13 12 12 13 13 12 11 12 13 14 15 13 11 10 10 10 8 8 10 11 12 12 11 9 8
12 13 13 13 12 12 11 11 11 12 12 11 11 10 10 11 11 12 12 12 13 13 13 13 12 12 13 12 11 13 15 14 13 13 14 14 15 16 17 16 17 17 17 16 16 15 15 15 15 15 16 17 18 17 15 14 15 16 15 15 15 12 10 9 10 9 9 12 14 14 12 10 7 6
12 12 13 12 12 11 10 10 10 10 10 10 10 9 10 10 11 12 12 13 12 12 11 11 10 10 11 11 10 11 13 13 11 11 13 13 13 15 16 16 16 17 17 17 16 16 15 15 15 16 17 18 19 18 15 15 16 17 17 16 17 17 15 13 11 11 11 12 14 14 14 13 11 8
12 12 12 11 10 10 9 9 9 9 9 10 10 10 10 11 12 13 13 14 13 11 10 9 9 9 11 12 12 13 14 13 12 13 14 13 13 15 16 16 17 17 18 17 17 17 16 15 15 17 18 18 18 17 15 14 15 18 19 18 18 18 18 15 14 14 15 15 15 15 14 13 12 11
Wind_Direction
276 282 284 286 288 283 275 278 284 276 272 276 278 284 280 250 241 285 319 304 284 323 330 315 327 358 3 294 262 249 240 229 227 229 217 219 257 274 281 279 282 293 288 278 264 254 248 244 241 237 233 230 229 229 228 227 228 227 231 236 236 234 235 237 237 237 237 236 236 236 236 236 237 237
277 280 280 284 287 282 272 273 280 275 271 275 279 283 278 253 235 223 230 290 279 293 319 314 315 338 357 340 295 276 237 222 223 228 229 238 253 261 268 268 267 280 296 290 274 261 253 249 248 245 242 239 236 235 234 235 236 233 233 235 236 236 237 241 244 245 246 246 245 245 243 242 242 241
273 275 278 285 290 283 272 267 271 273 273 277 277 275 268 251 248 241 208 221 278 287 312 314 310 325 338 319 298 288 237 218 220 228 241 252 254 254 261 265 260 265 288 299 288 269 256 250 247 246 247 246 243 241 239 239 239 239 239 239 238 237 237 239 242 245 248 250 251 251 251 251 249 248
272 275 277 285 292 285 271 263 265 268 271 273 269 267 265 252 253 251 220 214 270 287 302 302 299 313 323 308 304 297 233 209 222 239 246 254 255 252 261 270 266 265 275 291 290 275 259 251 247 244 244 245 245 244 243 243 243 241 241 242 242 242 242 241 242 244 246 248 251 252 254 254 252 251
268 270 273 279 288 288 275 267 270 271 271 272 264 257 258 252 250 248 232 231 272 293 298 288 283 292 290 290 306 299 222 218 240 244 242 250 254 255 261 266 266 265 269 280 281 267 254 247 245 245 243 242 242 242 241 242 244 245 244 244 244 245 245 245 244 244 244 246 247 248 250 251 251 251
264 262 265 267 273 286 288 283 283 281 280 279 269 257 255 255 254 249 242 236 252 283 292 284 278 279 265 261 276 254 250 260 254 244 248 261 266 265 265 265 264 262 262 268 267 253 240 234 235 240 242 242 242 241 241 240 241 243 245 246 247 247 247 248 247 246 246 246 246 247 247 248 248 249
258 258 259 262 272 292 310 303 283 275 278 279 268 257 257 260 260 254 248 244 248 270 285 289 284 275 255 256 269 262 258 259 255 256 265 272 274 273 270 267 262 257 256 259 256 242 226 219 222 229 235 239 240 240 241 242 242 242 243 244 245 246 247 247 248 249 249 249 248 248 248 248 248 248
264 261 259 260 263 269 280 281 268 254 250 259 254 247 248 254 256 252 245 246 252 260 271 278 272 261 254 265 272 262 254 253 256 262 265 269 274 277 277 272 263 254 250 251 247 236 222 219 224 227 231 235 234 235 236 238 241 242 242 242 243 243 244 245 246 248 249 250 250 249 249 249 250 249
272 261 261 262 254 253 256 257 255 247 232 237 242 236 233 239 245 246 243 242 247 253 260 265 261 256 262 271 272 267 265 264 262 259 258 264 275 280 278 275 265 250 240 240 239 228 218 223 232 232 233 236 235 235 235 235 236 237 238 238 238 238 239 241 243 244 246 248 248 248 249 249 250 250
258 251 254 259 255 255 254 244 240 240 235 237 238 228 220 225 233 239 239 236 239 246 251 256 258 260 267 273 278 282 283 282 277 270 265 265 271 278 274 269 260 242 232 233 233 224 219 226 237 238 234 232 234 235 234 233 233 233 235 236 236 237 238 238 239 241 243 244 245 246 247 248 249 250
253 251 251 254 257 256 256 255 248 242 238 238 236 227 221 224 226 228 229 227 231 239 247 254 261 266 271 276 283 288 289 285 283 281 278 274 273 277 268 256 245 230 224 224 223 219 218 223 231 237 233 228 227 229 230 230 231 232 236 240 242 244 245 246 246 245 246 246 247 249 250 250 251 252
253 254 255 259 263 260 257 258 252 243 239 237 233 226 223 227 229 228 227 227 233 243 253 261 266 268 272 276 283 289 291 287 284 286 286 281 276 273 259 247 236 225 221 219 219 219 219 223 227 229 229 226 223 224 226 228 232 235 239 245 249 251 252 253 253 252 251 251 251 252 253 254 255 256
251 253 256 256 259 262 260 252 249 250 244 235 233 229 222 225 232 236 236 238 243 248 255 263 267 270 272 274 279 288 293 295 295 298 296 286 279 272 257 244 235 228 225 222 223 224 226 229 230 228 228 226 223 226 228 229 235 240 243 247 251 255 256 256 256 255 253 253 253 253 254 254 255 256
245 249 252 251 253 258 257 245 245 254 252 242 243 241 232 231 237 240 240 243 244 246 251 258 264 266 267 272 278 283 292 300 300 300 298 290 283 271 254 244 235 230 227 226 227 229 229 230 231 230 231 230 228 229 228 228 234 241 245 250 254 258 261 261 259 257 254 253 253 254 255 256 256 257
243 248 248 246 244 247 250 247 244 247 250 247 243 241 243 247 250 250 249 249 247 245 247 251 255 257 263 273 277 280 290 298 297 298 299 295 286 264 236 232 233 231 228 228 229 229 230 231 233 233 232 232 232 232 229 227 231 237 244 250 256 261 264 265 263 260 257 254 254 255 257 259 261 260
241 243 243 240 239 245 252 254 249 242 240 239 236 237 247 255 257 259 260 258 255 252 249 249 253 255 261 270 276 283 291 291 287 289 291 293 290 270 244 232 238 241 232 226 228 230 231 231 234 237 236 232 232 231 228 226 229 236 242 246 253 261 266 267 265 261 259 256 255 256 258 259 261 261
238 239 240 242 250 256 253 250 250 244 234 229 231 239 252 258 260 262 264 262 261 259 256 255 257 260 262 267 274 279 283 284 286 283 274 270 273 271 264 256 260 261 237 221 222 229 233 231 233 239 239 233 230 229 227 227 228 234 240 244 252 261 267 268 265 259 257 255 254 255 255 254 254 250
240 241 247 255 263 262 251 243 244 241 232 228 231 240 254 267 269 264 260 260 259 258 257 258 261 264 266 269 273 274 273 279 287 285 277 273 267 264 267 267 269 271 249 226 221 230 237 233 231 238 240 234 230 229 227 227 228 232 238 241 245 256 265 267 266 260 254 248 244 243 239 236 226 200
241 246 255 265 269 262 250 242 236 230 228 228 235 249 263 270 270 264 263 264 265 266 264 265 269 272 273 275 277 280 280 281 282 280 277 276 273 269 272 270 266 265 254 233 221 228 240 236 232 237 239 234 230 228 227 226 227 230 234 235 236 245 257 262 262 256 243 228 219 211 202 195 179 162
243 253 259 261 260 257 254 250 238 231 235 239 249 266 272 270 267 266 266 265 266 271 273 274 280 282 282 282 281 283 284 280 278 278 274 272 270 271 279 279 270 263 253 234 227 237 247 242 235 235 234 231 229 228 225 223 224 228 230 229 228 233 245 253 250 236 218 202 188 173 164 158 151 143
244 259 262 256 257 262 268 272 265 253 256 264 271 275 272 267 265 265 269 273 275 278 279 281 285 288 289 289 287 287 285 280 278 276 272 271 266 258 264 272 269 265 255 240 239 253 262 252 239 231 227 227 228 226 223 221 221 225 227 224 222 224 230 234 228 214 205 196 183 169 156 148 144 140
231 222 214 232 257 272 279 286 286 282 282 283 281 277 272 268 265 262 271 279 282 283 284 284 285 287 289 291 293 295 297 290 281 273 271 274 272 252 246 257 265 268 265 255 245 245 257 259 249 234 223 223 224 222 220 219 221 224 224 221 219 218 217 217 210 201 198 194 184 174 164 156 149 144
191 172 160 168 215 246 276 297 296 294 294 293 287 279 274 275 277 277 281 286 288 289 289 289 289 288 288 289 291 294 298 292 279 272 273 276 273 258 251 256 262 268 273 269 256 238 241 251 245 230 214 219 234 227 221 221 223 225 223 220 216 210 205 205 199 192 192 193 189 182 173 165 160 158
171 157 144 127 121 66 17 23 14 1 349 330 318 310 309 310 311 310 308 307 306 305 305 306 304 300 296 291 287 288 293 291 282 278 279 277 276 273 266 262 260 258 270 277 267 246 240 242 234 222 211 206 231 227 222 222 225 225 222 218 215 210 205 204 198 190 189 192 193 191 184 174 170 169
138 120 99 89 85 79 76 75 70 66 64 58 52 44 32 17 1 351 347 347 346 343 339 334 327 319 314 303 292 290 295 294 286 282 280 278 279 281 278 271 268 267 274 280 269 247 239 238 226 215 211 213 218 215 216 221 224 225 221 217 217 216 211 208 203 194 191 192 193 194 192 186 181 180
115 102 93 91 89 87 86 82 76 73 71 69 67 62 51 39 23 11 13 20 22 20 15 9 3 355 346 331 313 303 298 298 295 289 284 283 284 284 283 284 284 285 287 286 268 244 239 238 224 209 207 213 215 200 202 218 226 229 226 222 222 219 213 211 207 200 199 199 198 197 196 197 200 204
101 101 101 98 94 90 86 80 74 71 68 66 63 58 51 45 40 39 42 45 48 49 46 41 36 29 23 20 17 14 9 5 360 343 315 308 306 297 288 286 293 301 302 300 292 262 246 245 236 215 211 217 218 199 190 229 247 244 236 230 228 223 217 217 215 210 208 205 202 202 205 208 215 219
105 108 106 103 99 93 86 80 74 70 68 66 64 60 54 50 52 56 55 53 53 52 49 44 40 34 31 29 30 32 39 41 32 22 17 10 356 338 340 3 14 23 10 352 344 300 252 244 233 209 208 204 190 146 78 51 18 303 247 235 233 231 228 226 225 222 218 213 208 207 211 214 218 224
110 108 106 104 98 91 87 82 76 72 73 74 71 67 62 57 55 57 58 56 52 48 45 42 36 32 32 33 32 32 34 35 39 43 49 59 68 79 89 89 76 65 59 52 45 34 7 147 143 153 154 144 131 114 100 79 53 39 28 250 252 250 242 238 236 232 227 223 219 217 220 221 221 233
109 107 105 96 84 82 89 87 78 73 74 75 72 69 65 59 55 54 56 56 53 48 44 41 38 37 41 43 43 41 39 40 45 49 56 74 85 89 87 80 69 58 51 50 52 49 47 57 80 101 108 109 106 106 111 98 67 53 45 34 17 337 278 255 246 240 236 235 232 230 230 226 226 246
109 105 97 85 81 86 94 90 80 75 75 72 69 67 64 61 60 58 59 59 57 54 50 48 47 47 47 47 47 47 48 48 48 48 54 66 72 74 72 67 60 53 49 49 51 48 44 43 38 31 58 93 86 82 89 81 64 56 43 32 24 2 326 291 265 249 240 240 242 242 234 225 226 245
108 100 90 88 92 93 89 83 78 76 74 71 68 65 63 62 62 61 60 60 59 58 56 54 52 50 48 48 48 48 49 48 48 48 51 54 53 52 57 57 52 46 42 39 36 34 35 41 45 41 42 60 69 69 70 62 55 49 40 38 33 12 345 312 275 246 233 237 243 240 224 217 224 249
110 101 94 93 95 91 85 81 77 74 73 71 68 64 61 59 58 58 58 57 57 57 55 52 48 46 44 44 44 45 47 49 48 47 48 50 50 51 53 51 44 36 31 27 24 25 30 36 42 45 49 58 63 64 69 63 48 38 33 32 27 21 25 33 200 198 201 215 219 204 188 200 241 287
110 103 97 93 91 90 88 85 79 75 74 72 68 64 60 57 56 56 55 54 54 54 52 48 44 41 38 37 36 36 38 41 43 43 44 46 45 46 47 45 40 36 35 34 31 29 32 37 44 50 54 58 57 57 61 57 36 28 33 35 25 20 39 64 116 166 183 192 189 182 194 231 281 300
101 98 94 90 89 89 88 85 82 80 77 72 68 64 61 59 60 60 58 55 55 55 53 50 47 44 40 39 38 37 36 38 40 41 43 43 41 41 42 38 33 32 33 32 31 28 24 23 25 35 47 52 49 45 51 59 51 35 32 37 37 37 50 84 113 136 158 179 185 203 242 273 310 322
95 93 91 89 88 88 86 84 83 81 78 74 69 65 63 62 63 63 62 60 58 56 54 51 49 46 43 42 42 43 43 43 42 41 42 41 40 41 41 38 38 41 42 39 38 39 36 29 24 31 53 59 48 40 51 64 57 34 20 20 27 36 64 107 142 145 137 142 160 183 263 328 337 333
94 93 92 92 91 88 86 86 85 83 81 77 72 67 66 65 63 61 60 59 57 54 51 49 47 44 41 40 39 40 42 41 40 39 38 38 39 40 41 42 45 49 50 48 45 43 43 41 40 45 58 58 40 24 17 24 31 28 21 15 10 1 346 181 185 174 128 83 39 28 14 357 348 342
96 94 92 92 90 87 84 85 87 85 81 76 71 69 69 68 65 62 57 56 55 51 47 46 44 41 39 37 37 36 36 36 36 34 33 34 36 37 39 43 46 47 47 48 46 43 43 41 38 40 47 50 42 13 346 349 10 27 26 16 9 0 331 272 253 270 299 317 4 21 16 5 358 356
98 95 93 91 90 88 87 87 88 85 80 73 71 73 73 71 67 62 57 57 56 52 49 48 47 44 41 38 37 36 35 34 32 31 31 33 32 32 36 42 45 45 45 44 42 40 39 35 28 23 26 31 24 1 342 338 356 20 22 13 7 5 357 326 273 280 291 291 6 8 2 357 356 357
101 98 96 94 93 92 92 91 90 89 87 84 81 79 77 74 71 66 63 61 58 54 53 53 51 49 45 40 35 35 35 34 32 31 31 31 32 33 39 45 48 50 48 44 39 35 33 31 24 7 356 1 1 354 355 353 354 8 18 18 12 7 5 356 329 318 320 323 339 342 340 336 334 335
104 100 97 96 95 94 94 91 87 89 93 93 89 83 78 76 74 71 67 63 59 58 57 54 51 49 47 42 37 35 35 35 36 36 36 39 44 48 50 51 51 52 50 43 37 33 30 30 31 27 16 14 17 18 18 6 351 358 16 30 33 26 21 15 359 339 332 331 330 329 329 328 325 319
106 103 100 98 96 95 94 90 86 87 91 93 89 82 77 75 72 67 62 58 55 53 52 50 48 45 44 41 38 35 34 35 38 40 42 47 51 52 52 51 49 49 49 43 37 33 30 28 30 34 38 41 43 41 34 19 8 12 26 34 36 36 37 35 26 12 5 5 1 350 337 326 318 309
112 110 107 105 102 97 93 88 85 85 88 89 86 77 69 63 57 52 49 46 44 42 40 39 39 39 40 42 40 35 32 33 37 43 47 49 49 48 50 51 50 47 43 39 33 30 29 27 27 33 41 45 45 43 37 31 29 29 29 29 31 33 35 37 39 43 46 44 40 34 21 3 340 314
120 117 114 112 109 102 93 87 85 84 82 81 76 65 56 51 46 42 39 35 32 31 28 26 28 33 36 40 41 39 36 37 42 49 51 51 51 52 52 52 50 44 39 34 29 26 26 27 31 40 44 42 39 38 36 32 31 33 36 40 41 38 33 31 34 39 41 39 35 32 29 24 16 3
130 127 123 121 117 109 97 89 86 82 75 71 65 56 50 44 37 32 28 24 22 22 21 24 34 40 40 43 47 49 50 52 56 58 57 59 64 62 57 52 49 46 41 36 31 29 30 31 33 39 42 39 37 38 39 37 36 40 43 44 41 36 32 32 31 28 25 23 20 14 10 10 9 5
Height
837 837 836 835 834 833 833 833 833 832 832 831 831 831 831 833 834 834 833 829 826 825 825 825 824 824 823 823 823 824 824 824 825 825 826 826 827 828 828 827 827 827 828 828 828 828 828 828 829 829 830 830 831 831 832 832 833 834 835 835 836 836 837 837 838 838 838 838 839 839 840 840 841 841
837 836 835 834 833 833 833 833 832 832 831 831 831 831 831 831 832 832 833 831 827 825 825 825 825 824 823 823 823 823 823 824 825 825 825 826 826 827 827 827 827 827 827 827 827 827 827 827 828 828 829 830 830 831 831 832 832 833 833 834 834 835 835 836 836 837 837 837 837 838 838 839 839 840
836 835 834 834 832 832 832 832 832 831 830 830 830 830 830 830 830 830 831 832 828 825 825 825 825 824 823 823 823 823 823 823 824 824 824 825 826 826 826 826 826 826 826 826 826 826 826 826 826 827 827 828 829 829 830 830 831 831 832 832 832 833 833 834 834 835 835 835 836 836 837 837 838 838
836 835 834 833 832 831 831 831 831 830 830 829 829 829 828 828 829 828 829 830 827 825 825 825 824 824 823 823 823 823 823 823 823 823 824 824 825 825 825 825 825 826 826 826 825 825 825 825 825 825 826 826 826 827 828 828 829 829 830 830 830 831 831 832 832 833 833 834 834 835 835 836 837 837
835 834 833 832 832 831 831 831 831 830 829 829 828 828 827 826 827 827 827 828 826 824 824 824 823 823 822 822 822 822 822 822 823 823 823 824 824 824 824 824 824 825 825 825 825 824 824 824 824 824 824 825 825 826 826 826 827 827 828 828 828 829 829 830 830 831 831 831 832 833 833 834 835 835
833 833 832 832 832 832 831 831 830 829 829 828 827 826 826 825 825 826 826 827 826 824 823 822 823 822 822 821 821 822 822 822 822 822 823 823 823 823 823 823 823 824 824 824 824 823 823 823 823 823 823 823 824 824 824 825 825 826 826 826 826 827 827 827 828 828 828 829 829 830 831 831 832 832
832 831 831 831 831 832 831 830 828 827 826 826 826 825 824 824 824 824 824 824 824 823 822 822 822 822 821 821 821 821 821 821 822 822 822 822 821 821 821 822 822 822 823 823 822 822 822 822 822 822 822 822 822 822 823 823 823 824 824 824 824 824 825 825 825 826 826 826 827 827 828 828 828 829
831 830 829 830 830 830 829 829 827 826 825 824 824 823 822 823 823 823 823 823 823 823 822 821 821 821 821 821 821 822 821 821 821 821 821 820 820 820 820 820 821 821 821 821 821 821 820 820 820 821 821 821 821 821 821 821 822 822 822 822 822 822 822 823 823 823 824 824 824 825 825 825 825 825
830 828 827 828 829 828 828 828 827 826 825 824 823 822 821 821 822 822 823 823 824 823 822 820 820 821 820 821 821 821 821 821 820 820 819 819 819 819 819 819 819 820 820 820 820 820 819 819 819 819 819 820 820 820 820 820 820 820 820 820 820 821 820 821 821 821 821 821 822 822 822 823 822 822
827 826 826 826 826 825 826 826 826 825 824 823 822 822 821 821 820 821 822 822 823 823 821 820 820 820 820 820 820 820 820 819 819 818 818 818 818 818 818 818 818 819 819 819 819 819 819 818 818 818 818 818 818 818 819 819 819 819 819 819 819 819 819 819 819 819 819 819 819 819 819 820 820 820
825 825 824 824 823 823 824 825 825 824 823 822 821 820 820 820 819 819 820 821 822 822 821 820 820 819 819 818 818 818 818 818 818 817 817 816 817 817 816 816 816 817 818 818 818 818 818 817 817 816 816 817 817 817 817 818 818 818 818 818 818 818 818 818 817 817 817 817 817 817 817 817 817 817
824 823 822 822 821 821 822 822 821 821 821 820 820 820 820 820 820 819 819 820 820 820 820 820 819 818 818 817 817 817 817 817 817 817 816 816 815 816 815 815 815 816 816 817 817 817 816 815 815 815 815 815 815 816 816 816 817 817 817 817 817 817 817 816 816 816 815 815 815 815 814 814 814 814
822 821 821 820 819 819 819 819 818 818 819 819 819 820 820 820 820 819 819 819 819 819 819 819 819 818 817 817 816 816 816 816 816 816 816 815 814 815 814 814 814 814 815 815 815 815 814 814 814 813 814 814 814 814 815 815 815 816 816 816 816 816 815 815 814 814 813 813 813 812 812 812 811 811
819 819 819 818 817 817 817 817 817 817 818 818 818 818 818 819 819 818 819 818 818 818 818 817 817 817 817 816 816 815 815 815 815 814 814 814 813 814 813 813 813 813 813 813 812 813 813 812 812 812 813 813 813 813 813 813 814 814 814 814 814 814 814 813 813 812 812 811 811 810 810 809 809 808
817 817 817 816 816 816 815 815 816 816 816 816 816 817 817 817 818 817 817 817 817 817 816 816 816 815 815 815 815 814 814 813 813 813 813 812 812 812 812 811 811 811 811 811 810 810 810 810 810 810 811 811 811 812 812 812 812 812 812 813 812 812 812 811 811 810 810 809 809 808 808 807 806 806
815 815 815 815 814 814 814 814 814 814 814 814 815 815 815 816 816 816 816 816 816 816 815 814 814 814 813 813 813 813 813 812 812 811 811 811 810 811 810 810 809 808 809 808 808 807 808 808 808 808 808 809 809 810 810 810 811 811 811 811 811 811 810 810 809 809 808 808 807 806 806 805 804 803
814 814 814 814 813 813 813 812 813 813 813 813 813 814 814 814 814 815 815 815 815 815 814 813 812 812 812 812 812 812 812 811 810 810 810 809 808 809 809 808 807 807 806 806 806 805 805 805 805 805 805 806 806 807 808 808 809 809 809 809 809 809 809 808 808 807 807 806 806 805 804 803 802 802
813 813 814 813 813 812 812 812 812 811 812 812 812 812 813 813 813 813 813 813 813 814 813 812 811 810 811 810 810 810 810 810 809 809 809 808 807 807 807 806 806 805 804 804 804 803 802 803 802 802 802 803 804 805 806 806 807 807 808 808 808 808 808 807 806 806 805 805 805 804 803 803 802 802
813 813 813 813 812 812 812 812 811 811 811 811 811 811 812 812 812 812 812 812 812 812 811 811 810 809 809 809 808 808 809 808 807 806 806 805 805 806 805 804 804 804 803 802 802 800 800 800 800 799 799 801 802 803 804 805 805 806 806 806 806 806 806 806 805 805 805 804 804 803 803 802 802 802
811 812 812 811 811 811 811 811 811 811 811 810 810 811 811 811 811 811 811 811 811 811 810 809 809 808 808 807 807 807 807 806 805 804 803 802 803 805 805 803 802 802 801 802 801 800 798 797 796 796 797 798 799 800 802 802 803 804 805 805 805 805 805 805 804 804 804 804 804 803 803 803 803 803
810 811 812 811 811 811 811 811 811 811 811 810 810 810 810 810 810 810 810 810 809 809 808 807 807 807 806 805 805 805 805 804 803 802 801 800 801 803 803 801 800 799 800 801 802 801 799 796 795 794 794 795 796 797 798 800 801 802 803 803 803 803 804 803 803 803 803 803 803 803 803 803 804 804
809 810 811 810 810 811 810 811 811 810 810 810 810 810 809 809 809 808 808 808 808 807 806 806 805 805 804 804 803 803 803 802 801 800 799 799 800 800 800 798 797 797 796 797 799 798 797 796 796 795 794 794 794 795 796 798 799 800 800 801 801 801 802 802 802 802 803 803 803 803 803 803 804 805
809 810 810 810 810 810 810 810 810 810 810 810 809 809 809 808 808 807 807 807 806 805 804 804 803 803 802 802 801 801 801 801 800 798 798 798 798 798 798 797 796 795 793 793 795 795 793 793 795 796 795 795 795 794 795 796 797 798 799 799 799 799 800 800 801 801 802 803 804 804 804 804 804 805
809 810 810 810 810 810 810 810 810 810 809 809 809 808 808 808 807 807 806 806 805 804 803 802 802 801 800 800 799 799 799 799 798 797 797 797 796 795 795 796 795 794 792 792 792 792 791 791 791 792 793 793 793 791 791 792 794 795 796 797 798 798 799 800 800 800 802 803 803 804 804 805 805 805
808 809 809 810 811 811 811 810 810 810 809 809 808 808 808 808 807 807 806 805 804 803 802 801 801 800 799 798 797 797 797 797 796 796 795 795 794 794 793 794 793 793 792 792 792 791 790 789 789 789 790 790 790 788 788 789 791 792 794 796 797 797 798 799 800 800 800 802 802 803 804 805 805 806
808 809 810 811 812 812 811 811 811 810 810 809 809 808 808 808 807 807 806 805 804 803 802 801 800 799 798 797 796 796 795 795 795 794 794 793 793 793 792 792 792 791 790 790 790 790 789 787 786 786 787 788 789 788 788 788 790 791 793 795 796 796 796 797 798 798 799 800 801 802 803 804 805 805
809 810 811 812 813 813 812 812 812 811 811 810 810 809 809 808 807 807 806 805 804 802 802 801 800 799 798 797 796 795 795 794 794 794 793 793 792 792 791 791 790 790 790 789 789 789 789 787 785 784 784 786 787 788 788 788 789 791 792 794 795 795 796 796 797 797 798 799 800 801 802 802 803 804
810 811 812 813 814 814 813 813 813 812 812 812 811 810 809 809 808 807 806 805 804 803 802 802 801 801 800 798 797 796 795 795 794 794 793 793 793 792 791 791 791 791 790 790 789 789 789 788 787 786 785 785 786 788 789 789 790 790 791 792 793 794 794 796 797 797 797 798 799 800 800 801 802 803
811 812 814 815 815 815 814 814 814 813 813 813 812 811 811 811 810 808 807 806 804 804 804 804 803 803 802 801 800 798 797 796 795 795 794 794 793 793 792 792 792 791 791 790 790 790 790 790 789 787 786 786 787 788 789 790 791 791 791 792 792 792 793 795 796 796 797 797 798 799 800 801 802 803
813 814 815 816 816 815 815 815 816 815 815 814 813 813 813 813 812 810 808 807 806 806 806 806 806 805 804 803 802 800 799 798 797 797 796 795 795 794 794 793 793 792 792 791 792 792 792 792 791 789 788 787 788 788 789 790 791 791 792 792 792 792 793 794 794 794 795 796 797 798 799 800 801 802
814 815 817 817 817 817 817 817 817 817 817 816 816 815 815 815 813 812 811 810 808 808 809 809 808 808 807 805 803 802 801 800 799 798 798 797 797 796 796 795 794 794 793 793 793 794 794 793 792 790 790 789 789 789 790 790 790 791 792 792 793 793 794 794 793 793 794 795 796 797 798 799 800 801
816 817 818 818 819 819 819 819 819 819 819 818 818 818 817 817 816 814 813 812 811 811 811 811 810 809 808 807 805 804 803 801 801 800 799 799 799 798 797 797 796 796 796 795 795 795 794 793 793 792 791 790 790 790 790 791 791 792 792 793 793 794 794 793 793 793 794 795 796 796 797 799 800 800
817 818 819 820 820 820 821 821 821 821 821 820 820 820 819 819 818 816 815 814 814 813 813 812 812 811 810 809 808 806 805 803 803 802 801 800 800 800 799 799 799 798 798 797 797 796 796 795 794 794 793 792 792 791 791 791 792 793 793 793 794 794 794 794 793 793 794 795 795 796 798 799 800 800
819 820 821 822 822 823 823 823 823 823 823 822 822 821 821 820 819 818 817 817 816 815 814 814 813 813 812 811 809 808 806 805 804 804 803 802 802 801 800 800 800 799 799 798 797 797 797 797 796 795 795 794 793 793 793 793 794 794 794 794 794 794 795 795 795 795 795 796 796 797 798 799 800 800
821 822 823 824 825 825 825 826 826 826 825 824 824 823 822 822 821 820 819 819 818 817 816 816 815 814 813 812 811 809 808 807 806 805 804 804 803 802 802 802 801 801 800 799 798 798 798 798 797 796 796 795 795 795 795 795 795 796 795 796 795 795 796 796 796 796 796 796 797 797 798 799 799 798
823 824 825 826 827 827 828 828 828 827 826 826 826 825 824 824 823 822 822 821 820 820 819 818 817 816 815 814 813 812 810 809 808 807 806 806 805 804 804 803 802 802 801 800 800 799 799 798 797 797 797 797 797 797 798 797 797 797 797 797 796 796 796 797 797 797 797 797 797 797 798 798 798 797
825 826 827 828 829 829 830 830 829 829 828 828 827 827 826 826 825 825 824 823 823 822 821 821 820 819 818 817 815 814 813 812 811 809 808 808 807 806 806 805 805 804 803 802 802 802 801 800 799 798 798 799 799 800 799 799 799 798 798 797 796 796 796 797 797 797 797 796 797 797 796 796 796 795
827 828 829 830 830 831 831 831 831 830 830 830 829 828 828 828 827 827 826 825 825 824 823 823 822 821 820 819 817 817 815 814 813 812 811 810 809 809 808 808 807 806 805 805 804 804 803 802 802 801 801 801 801 801 801 799 799 799 798 798 797 796 796 796 796 796 796 796 796 796 796 795 795 795
829 830 831 831 832 832 832 832 832 831 831 831 830 830 829 829 829 828 827 827 826 826 825 824 824 823 822 821 820 819 818 816 815 814 813 813 812 811 810 809 808 808 807 806 806 805 804 804 804 804 803 803 803 803 802 801 800 800 799 799 798 797 796 795 795 796 796 795 796 795 795 795 795 794
831 832 832 833 833 833 833 833 833 833 832 832 832 831 831 830 830 830 829 829 828 827 827 826 826 825 824 823 822 821 820 819 818 817 815 814 814 813 812 811 810 810 809 808 808 807 806 806 806 805 805 804 803 803 802 801 801 800 800 799 798 797 797 796 796 797 796 796 796 795 795 795 794 794
832 833 833 834 834 834 834 834 834 834 834 833 833 833 832 832 832 831 831 830 830 829 828 828 827 826 825 824 823 822 821 820 819 818 817 816 815 814 814 813 812 811 811 810 810 809 809 809 808 806 805 804 803 802 802 802 801 801 800 799 798 798 797 797 797 797 797 796 796 795 794 794 794 793
833 833 834 834 835 835 835 835 835 835 835 835 835 834 834 834 833 833 833 832 831 831 830 829 828 827 826 826 825 824 823 822 821 820 819 818 817 816 815 814 814 814 813 813 813 812 811 810 808 807 805 804 803 803 804 804 803 802 801 800 799 799 798 798 798 797 797 796 795 795 794 794 794 794
833 833 834 835 835 835 836 836 836 836 836 836 836 836 835 835 835 834 834 833 833 832 831 831 830 828 827 826 825 824 823 823 822 821 820 819 818 818 817 817 816 816 815 815 814 813 812 811 809 808 806 806 805 805 805 805 804 803 802 802 801 799 799 799 798 797 797 796 796 796 796 795 795 794
833 834 834 835 836 836 836 836 836 837 837 837 837 837 836 836 836 835 835 835 834 833 833 832 830 829 828 827 826 825 824 823 823 822 821 821 820 819 819 818 818 817 816 815 814 813 812 812 811 809 808 808 807 807 806 806 805 804 803 803 802 801 800 799 799 798 797 797 797 797 796 796 796 795
833 834 835 835 836 836 836 837 837 837 837 838 838 838 837 837 837 837 836 835 835 834 833 832 831 830 829 828 826 825 825 824 823 823 822 822 821 821 820 820 819 818 817 817 816 815 814 813 812 811 810 809 809 808 807 807 806 805 804 804 803 803 802 801 800 799 798 798 798 797 797 796 796 795